INTELSAT 903
1 27403U 02016A   03040.89919561 -.00000229  00000-0  10000-3 0  1990
2 27403   0.0268 100.5962 0002713 220.2906 107.8519  1.00269988  3244
NSS 7 
1 27414U 02019A   03038.63469704 -.00000163  00000-0  00000+0 0  1647
2 27414   0.0152  14.6605 0001971 297.7996  31.3392  1.00274302  3055
DIRECTV 5 
1 27426U 02023A   03040.21476608  .00000011  00000-0  10000-3 0  1357
2 27426   0.0160 119.0030 0002500 197.2942 140.7002  1.00273001  2814
INTELSAT 905
1 27438U 02027A   03040.05593751 -.00000176  00000-0  00000+0 0  1320
2 27438   0.0245 111.9973 0003181 204.3346 178.0032  1.00270355  2559
EXPRESS 4A 
1 27441U 02029A   03041.87869214  .00000160  00000-0  10000-3 0  2280
2 27441   0.0432 113.1343 0001409 161.7088 222.0271  1.00277310  2470
GALAXY 3C 
1 27445U 02030A   03037.24584850 -.00000150  00000-0  00000+0 0  1905
2 27445   0.0058 166.5155 0000632 230.1901  92.6750  1.00271181  2410
STELLAT 5 
1 27460U 02035A   03037.91937501 -.00000039  00000-0  10000-3 0  1660
2 27460   0.0285 218.9983 0001890 125.8424 117.7474  1.00272669  2208
NSTAR 3 
1 27461U 02035B   03038.49092000 -.00000302  00000-0  00000+0 0  1399
2 27461   0.0093  28.4804 0002098 278.8123 142.5450  1.00271156  2219
HOT BIRD 6 
1 27499U 02038A   03013.80550721  .00000106  00000-0  10000-3 0   665
2 27499   0.0928  32.8693 0008090 290.3889  92.5421  1.00271722  1476
ECHOSTAR-8 
1 27501U 02039A   03039.25592317 -.00000049  00000-0  00000+0 0  1162
2 27501   0.0047 326.5635 0002965 358.2205 155.2414  1.00272087  1757
ATLANTIC BIR
1 27508U 02040A   03040.89355904 -.00000091  00000-0  00000+0 0  1248
2 27508   0.0824 113.5777 0002313 232.9135 102.2168  1.00271001  1747
MSG-1 
1 27509U 02040B   03040.19283566 -.00000077  00000-0  00000+0 0  1127
2 27509   1.6905 302.6172 0001111 110.1190 144.9177  1.00272164  1731
INTELSAT 906
1 27513U 02041A   03038.70726307  .00000020  00000-0  00000+0 0  1028
2 27513   0.0192  55.5867 0001705 254.5057 146.0593  1.00273424  1595
DRTS 
1 27516U 02042B   03040.62821185 -.00000226  00000-0  00000+0 0  1003
2 27516   0.0943 270.1762 0005778 294.4379 251.6212  1.00270939  1583
METSAT 1 
1 27525U 02043A   03041.63053145 -.00000067  00000-0  00000+0 0   898
2 27525   0.1381 261.4628 0009156 359.5761 180.2070  1.00272275  1557
HISPASAT 1D 
1 27528U 02044A   03039.24139058 -.00000209  00000-0  00000+0 0  1084
2 27528   0.0509 269.8046 0005367  37.6544 247.3467  1.00272808  1467
EUTELSAT W5 
1 27554U 02051A   03037.64223943 -.00000041  00000-0  00000+0 0   735
2 27554   0.0463 235.3916 0002323 122.8174  79.8383  1.00270796   833
TDRS 10 
1 27566U 02055A   03040.63423354  .00000146  00000-0  00000+0 0   671
2 27566   6.8755 296.9845 0002811  19.6344 260.2129  1.00267169   746
NIMIQ 2 
1 27632U 02062A   03041.71449404 -.00000163  00000-0  00000+0 0   138
2 27632   0.0427 244.2013 0001156 102.4355 319.7464  1.00271402   465
INTELSAT 511
1 15873U 85055A   03039.55258130 -.00000216  00000-0  10000-3 0  6149
2 15873   7.3267  57.4654 0003463 254.0623 356.1275  1.00271126 39146
INTELSAT 513
1 19121U 88040A   03041.16144822  .00000073  00000-0  10000-3 0  1637
2 19121   5.8443  69.2095 0003169 253.7950  58.0338  1.00272345 30487
INTELSAT 515
1 19772U 89006A   03032.98012880 -.00000237  00000-0  00000+0 0   839
2 19772   4.4242  78.5917 0023829 239.0516 120.7336  0.99107057 40049
INTELSAT 602
1 20315U 89087A   03040.18889469  .00000164  00000-0  00000+0 0  8059
2 20315   1.0585  93.7474 0000339  18.8490 127.1393  1.00274748 46459
INTELSAT 603
1 20523U 90021A   03039.98320374 -.00000147  00000-0  00000+0 0  3744
2 20523   0.5153  95.9504 0001482 230.7574 145.9016  1.00271792 40215
INTELSAT 604
1 20667U 90056A   03041.43297206 -.00000129  00000-0  00000+0 0  5923
2 20667   0.7926  95.2581 0001840 242.1917 115.4821  1.00271739 49090
INTELSAT 605
1 21653U 91055A   03037.01831020 -.00000203  00000-0  00000+0 0  7224
2 21653   0.0556  88.7811 0004612 151.6008 234.3709  1.00268113 42020
INTELSAT 601
1 21765U 91075A   03040.80107311  .00000023  00000-0  00000+0 0  5722
2 21765   0.0137 109.7883 0001335 211.6561 170.6214  1.00273480 41162
INTELSAT K 
1 21989U 92032A   03039.97167857 -.00000045  00000-0  00000-0 0  4692
2 21989   0.4119 110.3070 0089479 124.3132 124.5213  0.97178653 49604
INTELSAT 701
1 22871U 93066A   03040.41019449  .00000061  00000-0  10000-3 0  1772
2 22871   0.0300 175.0717 0002015 110.6272 180.9611  1.00273702 33958
INTELSAT 702
1 23124U 94034A   03036.64057294  .00000073  00000-0  00000+0 0  1295
2 23124   0.0172 297.1201 0001226 327.0276 172.9879  0.99134892 45832
INTELSAT 703
1 23305U 94064A   03039.71410300  .00000078  00000-0  10000-3 0  8142
2 23305   0.0205 245.5485 0005891 341.3954 225.6130  1.00275378 30664
INTELSAT 704
1 23461U 95001A   03040.77111568  .00000007  00000-0  10000-3 0  8848
2 23461   0.0238  79.9183 0005533 270.2329 132.8839  1.00273433 29647
INTELSAT 705
1 23528U 95013A   03037.48284998 -.00000280  00000-0  00000+0 0  1074
2 23528   0.0826 275.2432 0002088  39.3196 305.4331  1.00265379 28789
INTELSAT 706
1 23571U 95023A   03040.73378197 -.00000275  00000-0  10000-3 0  8571
2 23571   0.0439 268.7485 0002467  58.5970  23.1815  1.00269900 28309
INTELSAT 707
1 23816U 96015A   03037.74438432 -.00000009  00000-0  00000+0 0  8492
2 23816   0.0410 291.1236 0003786  33.7800  78.4947  1.00272236 25296
INTELSAT 709
1 23915U 96035A   03040.04162038 -.00000277  00000-0  10000-3 0  8422
2 23915   0.0333 295.5263 0001897  23.7736 139.0281  1.00274594 24390
INTELSAT 801
1 24742U 97009A   03041.05280672 -.00000215  00000-0  10000-3 0  8208
2 24742   0.0512 275.4461 0004498  55.7007 156.0497  1.00269826 21837
INTELSAT 802
1 24846U 97031A   03038.41120132  .00000015  00000-0  10000-3 0  7136
2 24846   0.0101 295.5367 0003421  26.5658 137.0176  1.00272649 20645
INTELSAT 803
1 24957U 97053A   03040.65677791  .00000081  00000-0  00000+0 0  6878
2 24957   0.0968  95.1557 0003861 235.5481 228.0390  1.00274206 19736
INTELSAT 804
1 25110U 97083A   03040.57208736  .00000034  00000-0  00000+0 0  6804
2 25110   0.0414 275.4458 0002935  45.5375 200.1928  1.00273883 18905
INTELSAT 806
1 25239U 98014A   03038.03122686 -.00000258  00000-0  10000-3 0  6598
2 25239   0.0335 295.5273 0002860 324.9721 206.9791  1.00271373 18187
INTELSAT 805
1 25371U 98037A   03039.66299888 -.00000278  00000-0  10000-3 0  5602
2 25371   0.0459 273.8493 0003111  31.7962  15.8488  1.00272131 17041
INTELSAT 901
1 26824U 01024A   03040.86911459 -.00000131  00000-0  00000+0 0  2931
2 26824   0.0119  97.6350 0003072 220.0993 116.6539  1.00272094  6161
INTELSAT 902
1 26900U 01039A   03038.79523872  .00000038  00000-0  10000-3 0  2344
2 26900   0.0310  92.7321 0002169 168.7320 224.3477  1.00275167  5319
INTELSAT 904
1 27380U 02007A   03038.80180329  .00000054  00000-0  10000-3 0  1483
2 27380   0.0086 159.1386 0006631  60.6342 266.4356  1.00273968  3568
INTELSAT 903
1 27403U 02016A   03040.89919561 -.00000229  00000-0  10000-3 0  1990
2 27403   0.0268 100.5962 0002713 220.2906 107.8519  1.00269988  3244
INTELSAT 905
1 27438U 02027A   03040.05593751 -.00000176  00000-0  00000+0 0  1320
2 27438   0.0245 111.9973 0003181 204.3346 178.0032  1.00270355  2559
INTELSAT 906
1 27513U 02041A   03038.70726307  .00000020  00000-0  00000+0 0  1028
2 27513   0.0192  55.5867 0001705 254.5057 146.0593  1.00273424  1595
GORIZONT 25 
1 21922U 92017A   03041.08711192 -.00000280  00000-0  00000+0 0  7103
2 21922   6.6371  61.6417 0002399 301.6807 307.7667  1.00265076 39728
GORIZONT 26 
1 22041U 92043A   03041.06381199 -.00000111  00000-0  00000+0 0  4103
2 22041   6.3882  62.7304 0001343 270.8496 175.0718  1.00271217 38705
GORIZONT 27 
1 22245U 92082A   03041.86286459  .00000111  00000-0  10000-3 0  4039
2 22245   6.2199  64.7325 0003718 346.1794  58.3717  1.00242825 41712
GORIZONT 28 
1 22880U 93069A   03041.62459719 -.00000279  00000-0  00000+0 0  2843
2 22880   5.5690  68.7681 0000631 319.6886  73.2477  1.00277029 34021
GORIZONT 29 
1 22907U 93072A   03036.76500780  .00000104  00000-0  10000-3 0  9254
2 22907   5.5140  68.8324 0001874 283.5913  76.5245  1.00245602 33756
GORIZONT 30 
1 23108U 94030A   03037.76703481  .00000000  00000-0  10000-3 0  7968
2 23108   5.3018  70.8673 0003385 357.5824   2.5545  1.00207984 31946
GORIZONT 31 
1 23775U 96005A   03040.94947012 -.00000318  00000-0  00000+0 0  5085
2 23775   4.0002  77.8420 0001761 231.1067 275.7731  1.00273917 25813
GORIZONT 32 
1 23880U 96034A   03040.98420697  .00000103  00000-0  10000-3 0  5157
2 23880   3.8176  80.0281 0002834 292.9918 173.8149  1.00278825 24589
GORIZONT 33 
1 26372U 00029A   03040.34005275 -.00000239  00000-0  00000-0 0  8314
2 26372   0.8484  84.5136 0001868 267.2178  54.3201  1.00264471  9918
RADUGA 32 
1 23448U 94087A   03038.62353372 -.00000068  00000-0  10000-3 0  3829
2 23448   4.7803  74.4688 0003428  53.7183 306.4467  1.00282453 47406
RADUGA 1-4 
1 25642U 99010A   03040.73090280  .00000165  00000-0  10000-3 0  9664
2 25642   2.9949 112.0983 0001351 274.6847  50.3285  1.00273750 14458
RADUGA 1-5 
1 26477U 00049A   03041.95550848  .00000131  00000-0  10000-3 0  6852
2 26477   0.6224  92.3938 0000457 295.5562 145.3537  1.00262167  8984
RADUGA 1-6 
1 26936U 01045A   03042.00281707 -.00000175  00000-0  10000-3 0  3925
2 26936   0.3404 246.5770 0001691 138.8541 201.4926  1.00268643  4959
MOLNIYA 3-37
1 20444U 90006A   03040.26195328  .00005051  00000-0  85036-3 0  7266
2 20444  61.7121 158.1225 7518596 261.2600  15.8580  2.00721603 95592
